Location: Bergnerzell
(49.1816°N, 10.2565°E)
Time: 12:53:40
(UTC+00:00)

IDEFIX/ARIANE 42P - Pass Details

Date: 19 August 2024
Orbit: 782 x 799 km, 98.5° (Epoch: 15 September)

Event Time Altitude Azimuth Distance (km) Brightness Sun altitude
Rises 03:15:08 0° 360° (N) 3,287 6.3 -9.9°
Reaches altitude 10° 03:19:01 10° 330° (NNW) 2,356 5.1 -9.3°
Maximum altitude 03:20:51 12° 309° (NW) 2,224 4.7 -9.1°
Drops below altitude 10° 03:22:41 10° 289° (WNW) 2,355 4.7 -8.8°
Enters shadow 03:24:33 - 272° (W) 2,720 4.8 -8.6°
